Regional Weather Roundup
Issued by NWS

Home | Current Version | Previous Version | Text Only | Print | Product List | Glossary Off
Versions: 1 2 3 4 5 6 7 8 9 10 11 12 13 14 15 16 17 18 19 20 21 22 23 24 25 26 27 28 29 30 31 32 33 34 35 36 37 38 39 40 41 42 43 44 45 46 47 48 49 50

236
ASUS44 KLIX 231201
RWRLA
LOUISIANA WEATHER ROUNDUP
NATIONAL WEATHER SERVICE NEW ORLEANS LA
700 AM CDT WED APR 23 2014

NOTE: "FAIR" INDICATES FEW OR NO CLOUDS BELOW 12,000 FEET WITH NO
      SIGNIFICANT WEATHER AND/OR OBSTRUCTIONS TO VISIBILITY.
      SKY/WX - SKY CONDITION AND SIGNIFICANT WEATHER.
      TMP - AIR TEMPERATURE.    DP   - DEWPOINT TEMPERATURE.
      RH  - RELATIVE HUMIDITY.  PRES - PRESSURE.
      HX  - HEAT INDEX.         WCI  - WIND CHILL INDEX.

*  THESE STATIONS ARE NOT NWS OR FAA STATIONS AND ARE NOT UNDER
   NWS QUALITY CONTROL.

LAZ040-048-061>063-065-066-069-231300-
SOUTHEAST LOUISIANA

CITY           SKY/WX    TMP DP  RH WIND       PRES   REMARKS
N.O. AUDUBON   NOT AVBL
N.O. INTL ARPT CLEAR     62  62 100 NW3       29.97R
6HR MIN TEMP:  61; 6HR MAX TEMP:  67;

N.O. LAKEFRONT CLEAR     68  63  84 N9        29.97R
6HR MIN TEMP:  65; 6HR MAX TEMP:  69;

N.O. DOWNTOWN* FAIR      66  61  82 CALM      29.98R
6HR MIN TEMP:  66; 6HR MAX TEMP:  70;

SLIDELL        CLEAR     58  56  93 CALM      29.96R FOG
6HR MIN TEMP:  56; 6HR MAX TEMP:  61;

BATON ROUGE    CLEAR     59  56  89 CALM      29.98R
6HR MIN TEMP:  58; 6HR MAX TEMP:  63;

BOOTHVILLE     CLEAR     64  64 100 CALM      29.96R FOG
6HR MIN TEMP:  63; 6HR MAX TEMP:  67;

BELLE CHASSE   FOG       57  55  93 CALM      29.96R VSB 3/4
6HR MIN TEMP:  57; 6HR MAX TEMP:  62;

BOGALUSA*        N/A     57  54  91 CALM      29.98R
6HR MIN TEMP:  55; 6HR MAX TEMP:  60;

GALLIANO*      NOT AVBL
NEW ROADS*     NOT AVBL
GONZALES*      NOT AVBL
HAMMOND*       NOT AVBL
HOUMA*         CLEAR     61  59  94 CALM      29.97R FOG
PORT FOURCHON* SUNNY     68  66  94 NW3       29.98R

$$

LAZ041-044-053-054-231300-
SOUTHWEST LOUISIANA

CITY           SKY/WX    TMP DP  RH WIND       PRES   REMARKS
LAKE CHARLES   FOG       67  67 100 CALM      29.96R VSB 1/4
6HR MIN TEMP:  62; 6HR MAX TEMP:  67;

LAFAYETTE      CLEAR     59  57  93 CALM      29.98R
6HR MIN TEMP:  58; 6HR MAX TEMP:  65;

PATTERSON      CLEAR     57  57 100 CALM      30.00R
6HR MIN TEMP:  57; 6HR MAX TEMP:  63;

SALT POINT       N/A     65  63  93 CALM      29.96R
6HR MIN TEMP:  65; 6HR MAX TEMP:  71; 6HR PCP:  0.01;

NEW IBERIA     CLEAR     60  58  92 N3        29.98R
6HR MIN TEMP:  58; 6HR MAX TEMP:  64;

CHENAULT AIRPK FOG       66  66 100 CALM      29.97R VSB 0

$$

LAZ027-028-231300-
CENTRAL LOUISIANA

CITY           SKY/WX    TMP DP  RH WIND       PRES   REMARKS
FORT POLK      CLEAR     58  55  90 CALM      29.97R
6HR MIN TEMP:  57; 6HR MAX TEMP:  62;

ALEXANDRIA INT CLEAR     56  56 100 CALM      29.97R FOG
6HR MIN TEMP:  56; 6HR MAX TEMP:  62;

ALEXANDRIA     CLEAR     54  52  93 CALM      29.98R FOG
6HR MIN TEMP:  53; 6HR MAX TEMP:  58;


$$

LAZ001-002-231300-
NORTHWEST LOUISIANA

CITY           SKY/WX    TMP DP  RH WIND       PRES   REMARKS
SHREVEPORT     PTCLDY    58  56  93 CALM      29.96R
6HR MIN TEMP:  58; 6HR MAX TEMP:  63;

BARKSDALE AFB  NOT AVBL
DTN SHREVEPORT PTCLDY    59  58  96 CALM      29.97R FOG
6HR MIN TEMP:  58; 6HR MAX TEMP:  62; 6HR PCP:  0.01;


$$

LAZ014-016-231300-
NORTHEAST LOUISIANA

CITY           SKY/WX    TMP DP  RH WIND       PRES   REMARKS
MONROE         FOG       54  54 100 CALM      30.00R VSB<1/4
6HR MIN TEMP:  53; 6HR MAX TEMP:  60; 6HR PCP:  0.01;

TALLULAH       FOG       55  54  96 CALM      29.99R VSB<1/4
6HR MIN TEMP:  53; 6HR MAX TEMP:  62;


$$




USA.gov is the U.S. government's official web portal to all federal, state and local government web resources and services.